Location: Sternwarte auf dem Internationalen Platz Vogelsang IP
(50.5721°N, 6.4398°E)
Time: 04:10:49
(UTC+01:00)

Transit 2A Rocket - Pass Details

Date: 11 December 2025
Orbit: 581 x 903 km, 66.7° (Epoch: 14 January)

Event Time Altitude Azimuth Distance (km) Brightness Sun altitude
Rises 08:01:27 0° 158° (SSE) 3,282 9.3 -4.0°
Reaches altitude 10° 08:04:48 10° 136° (SE) 2,421 9.3 -3.5°
Maximum altitude 08:07:55 15° 102° (ESE) 2,123 8.6 -3.1°
Drops below altitude 10° 08:11:08 10° 69° (ENE) 2,525 8.2 -2.7°
Sets 08:14:45 0° 48° (NE) 3,506 8.6 -2.2°
